Location: Tucson
(32.2217°N, 110.9265°W)
Time: 14:22:06
(UTC-07:00)

Hubble Space Telescope - Visible Passes

Search period start: 20 February 2018 00:00
Search period end: 02 March 2018 00:00
Orbit: 537 x 541 km, 28.5° (Epoch: 19 February)

Date Brightness Start Highest point End Pass type
(mag) Time Alt. Az. Time Alt. Az. Time Alt. Az.
20 Feb 2.1 05:17:12 28° S 05:17:47 29° SSE 05:21:23 10° ESE visible
21 Feb 2.0 05:07:37 33° SSE 05:07:37 33° SSE 05:11:13 10° ESE visible
22 Feb 2.1 04:57:58 34° SE 04:57:58 34° SE 05:01:00 10° E visible
23 Feb 2.4 04:48:18 30° ESE 04:48:18 30° ESE 04:50:46 10° E visible
23 Feb 1.4 06:23:51 10° W 06:27:51 48° S 06:31:50 10° ESE visible
24 Feb 2.8 04:38:36 24° ESE 04:38:36 24° ESE 04:40:30 10° E visible
24 Feb 1.4 06:13:57 12° WSW 06:17:32 46° S 06:21:30 10° ESE visible
25 Feb 3.2 04:28:54 19° ESE 04:28:54 19° ESE 04:30:13 10° ESE visible
25 Feb 1.5 06:04:15 16° WSW 06:07:14 42° S 06:11:09 10° ESE visible
26 Feb 3.6 04:19:12 15° ESE 04:19:12 15° ESE 04:19:57 10° ESE visible
26 Feb 1.6 05:54:33 20° WSW 05:56:55 37° SSW 06:00:46 10° ESE visible
27 Feb 4.0 04:09:32 11° ESE 04:09:32 11° ESE 04:09:40 10° ESE visible
27 Feb 1.8 05:44:53 23° WSW 05:46:36 33° SSW 05:50:20 10° SE visible
28 Feb 1.9 05:35:15 25° SW 05:36:17 28° SSW 05:39:51 10° SE visible
01 Mar 2.1 05:25:40 24° SSW 05:25:56 24° SSW 05:29:18 10° SE visible
